Regional Weather Roundup
Issued by NWS Midland/Odessa, TX

Skip options and go directly to product.
Home | Oldest Version | Next Version | Current Version | All | Text Only | Save Text | Print | Product List | Glossary On

Skip product version selection by date and time.   
973
ASUS44 KMAF 251501
RWRMAF
MIDLAND AREA WEATHER ROUNDUP
NATIONAL WEATHER SERVICE MIDLAND TX
1000 AM CDT SUN SEP 25 2016

...IN SOUTHWEST TEXAS AND SOUTHEAST NEW MEXICO...

CITY           SKY/WX    TMP DP  RH WIND       PRES   REMARKS
ALPINE         CLOUDY    59  58  96 CALM      30.19R
ANDREWS        FAIR      66  66 100 NE5       30.13R
ARTESIA        CLOUDY    63  41  45 N20G25    30.19R
BIG SPRING     CLOUDY    70  67  89 NE10      30.12R
CARLSBAD       CLOUDY    65  40  39 NW17      30.16R
DRYDEN           N/A     68  67  96 NE8       30.02R
FORT STOCKTON  CLOUDY    68  65  90 SE6       30.07S
GUAD PASS      CLOUDY    61  36  39 E31       30.19R
HOBBS          PTSUNNY   66  66 100 NE6       30.16R
MARFA          LGT RAIN N/A N/A N/A W3        30.18R
MIDLAND AIRPK  CLOUDY    68  64  85 N5        30.09R
MIDLAND INTL   CLOUDY    69  62  78 N10       30.08R
ODESSA         CLOUDY    69  61  75 N8        30.10S
PECOS          CLOUDY    69  64  83 NE8       30.07S
PRESIDIO       RAIN      64  63  97 CALM      30.09R
SEMINOLE       CLOUDY    66  63  90 CALM      30.15R
SNYDER           N/A     67  64  91 CALM      30.11R
WINK           CLOUDY    69  61  75 NE9       30.08R
$$
...OTHER STATIONS IN TEXAS...

CITY           SKY/WX    TMP DP  RH WIND       PRES   REMARKS
ABILENE        LGT RAIN  67  66  97 NE7       30.07R
AMARILLO       CLOUDY    59  43  55 N24G38    30.28R
AUSTIN         CLOUDY    79  73  82 SE3       29.99R
BROWNSVILLE    MOSUNNY   88  76  67 S14       29.92S
CORPUS CHRISTI CLOUDY    82  76  81 SE8       29.94R
DALLAS FTW     LGT RAIN  75  71  87 N7        30.02S
DEL RIO        RAIN      70  70 100 N7        29.96S FOG
EL PASO        CLOUDY    67  32  27 N9        30.13R
HOUSTON INT    PTSUNNY   80  76  87 SE18G26   30.01R THUNDER
LUBBOCK        CLOUDY    69  65  86 N6        30.15R
SAN ANGELO     CLOUDY    68  65  90 E12       30.04F
SAN ANTONIO    CLOUDY    79  74  84 E7        29.97F
WACO           CLOUDY    78  74  87 SE6       30.01R
WICHITA FALLS  NOT AVBL
$$
...OTHER LOCATIONS IN NEW MEXICO...

CITY           SKY/WX    TMP DP  RH WIND       PRES   REMARKS
ALAMAGORDO     MOSUNNY   59  34  38 S5        30.16R
ALBUQUERQUE    CLOUDY    54  34  46 NW6       30.33R
CANNON AFB     CLOUDY    59  43  56 MISG      30.27R
CLOVIS         CLOUDY    59  43  55 NE33      30.27R
HOLLOMAN AFB   CLOUDY    64  33  31 SW5       30.13R
ROSWELL        PTSUNNY   62  42  47 N21G28    30.21R
RUIDOSO        CLOUDY    55  32  41 E8        30.36R
SANTA FE       CLOUDY    52  30  43 N22G30    30.37R
TRUTH OR CONSE SUNNY     64  31  28 NE18G31   30.22R
TUCUMCARI      CLOUDY    60  37  42 NE24G33   30.32R
$$

USA.gov is the U.S. government's official web portal to all federal, state and local government web resources and services.